When you browse on this site, cookies collect data to enhance your experience and personalize the content and advertising you see.
Visit our Privacy Policy to learn more. By continuing to use the site, you agree to this use of cookies and data.
  • In Hungary
  • List of Countries
  • For 7 days
  • Water Temperature
  • Satellite Maps
  • Weather Map
  • News
  • Weather Widgets
  • user-avatar
    Login

    Hourly Weather Chiknayakanhalli

    Today, 23 January, Wednesday

    Time Temperature Precipitation Wind Pressure Humidity
    00:00 +22°C° 0 mm 1 mps 691 mmHg 34%
    01:00 +21°C° 0 mm 1 mps 691 mmHg 38%
    02:00 +21°C° 0 mm 1 mps 691 mmHg 41%
    03:00 +20°C° 0 mm 1 mps 691 mmHg 46%
    04:00 +20°C° 0 mm 1 mps 691 mmHg 51%
    05:00 +19°C° 0 mm 1 mps 691 mmHg 57%
    06:00 +20°C° 0 mm 1 mps 691 mmHg 58%
    07:00 +21°C° 0 mm 1 mps 692 mmHg 58%
    08:00 +21°C° 0 mm 1 mps 692 mmHg 59%
    09:00 +23°C° 0 mm 1 mps 692 mmHg 51%
    10:00 +26°C° 0 mm 1 mps 692 mmHg 43%
    11:00 +26°C° 0 mm 0 mps 692 mmHg 35%
    12:00 +27°C° 0 mm 0 mps 692 mmHg 31%
    13:00 +28°C° 0 mm 0 mps 691 mmHg 28%
    14:00 +29°C° 0 mm 0 mps 691 mmHg 24%
    15:00 +29°C° 0 mm 0 mps 691 mmHg 24%
    16:00 +29°C° 0 mm 0 mps 691 mmHg 23%
    17:00 +30°C° 0 mm 1 mps 690 mmHg 23%
    18:00 +29°C° 0 mm 1 mps 691 mmHg 25%
    19:00 +28°C° 0 mm 1 mps 691 mmHg 27%
    20:00 +26°C° 0 mm 2 mps 691 mmHg 29%
    21:00 +26°C° 0 mm 2 mps 691 mmHg 30%
    22:00 +25°C° 0 mm 2 mps 691 mmHg 32%
    23:00 +24°C° 0 mm 2 mps 692 mmHg 33%

    Tomorrow, 24 January, Thursday

    Time Temperature Precipitation Wind Pressure Humidity
    00:00 +24°C° 0 mm 2 mps 691 mmHg 41%
    01:00 +22°C° 0 mm 3 mps 691 mmHg 49%
    02:00 +21°C° 0 mm 3 mps 691 mmHg 58%
    03:00 +20°C° 0 mm 3 mps 691 mmHg 67%
    04:00 +20°C° 0 mm 3 mps 691 mmHg 76%
    05:00 +19°C° 0 mm 3 mps 691 mmHg 84%
    06:00 +20°C° 0 mm 3 mps 691 mmHg 80%
    07:00 +21°C° 0 mm 4 mps 692 mmHg 76%
    08:00 +22°C° 0 mm 4 mps 692 mmHg 72%
    09:00 +25°C° 0 mm 4 mps 693 mmHg 61%
    10:00 +27°C° 0 mm 3 mps 693 mmHg 51%
    11:00 +29°C° 0 mm 3 mps 693 mmHg 41%
    12:00 +30°C° 0 mm 3 mps 692 mmHg 37%
    13:00 +31°C° 0 mm 2 mps 692 mmHg 33%
    14:00 +31°C° 0 mm 1 mps 691 mmHg 29%
    15:00 +31°C° 0 mm 1 mps 691 mmHg 28%
    16:00 +31°C° 0 mm 1 mps 690 mmHg 28%
    17:00 +31°C° 0 mm 1 mps 690 mmHg 27%
    18:00 +30°C° 0 mm 2 mps 690 mmHg 30%
    19:00 +29°C° 0 mm 2 mps 691 mmHg 33%
    20:00 +27°C° 0 mm 2 mps 691 mmHg 36%
    21:00 +27°C° 0 mm 2 mps 691 mmHg 38%
    22:00 +26°C° 0 mm 2 mps 691 mmHg 40%
    23:00 +26°C° 0 mm 2 mps 692 mmHg 42%

    Day after tomorrow, 25 January, Friday

    Time Temperature Precipitation Wind Pressure Humidity
    00:00 +25°C° 0 mm 2 mps 691 mmHg 48%
    01:00 +24°C° 0 mm 2 mps 691 mmHg 55%
    02:00 +21°C° 0 mm 2 mps 690 mmHg 61%
    03:00 +21°C° 0 mm 2 mps 690 mmHg 64%
    04:00 +20°C° 0 mm 2 mps 690 mmHg 68%
    05:00 +20°C° 0 mm 2 mps 690 mmHg 71%
    06:00 +21°C° 0 mm 3 mps 691 mmHg 69%
    07:00 +21°C° 0 mm 4 mps 691 mmHg 66%
    08:00 +22°C° 0 mm 4 mps 692 mmHg 64%
    09:00 +25°C° 0 mm 4 mps 692 mmHg 58%
    10:00 +27°C° 0 mm 3 mps 692 mmHg 52%
    11:00 +29°C° 0 mm 3 mps 693 mmHg 45%
    12:00 +29°C° 0 mm 3 mps 692 mmHg 42%
    13:00 +30°C° 0 mm 3 mps 691 mmHg 38%
    14:00 +31°C° 0 mm 2 mps 690 mmHg 35%
    15:00 +31°C° 0 mm 2 mps 690 mmHg 35%
    16:00 +30°C° 0 mm 2 mps 690 mmHg 36%
    17:00 +30°C° 0 mm 1 mps 690 mmHg 37%
    18:00 +29°C° 0 mm 1 mps 691 mmHg 39%
    19:00 +28°C° 0 mm 1 mps 691 mmHg 41%
    20:00 +25°C° 0 mm 0 mps 691 mmHg 43%
    21:00 +27°C° 0 mm 1 mps 691 mmHg 44%
    22:00 +26°C° 0 mm 1 mps 691 mmHg 46%
    23:00 +25°C° 0 mm 2 mps 691 mmHg 48%

    26 January, Saturday

    Time Temperature Precipitation Wind Pressure Humidity
    00:00 +24°C° 0 mm 2 mps 691 mmHg 52%
    01:00 +23°C° 0 mm 2 mps 691 mmHg 55%
    02:00 +21°C° 0 mm 2 mps 690 mmHg 58%
    03:00 +21°C° 0 mm 2 mps 690 mmHg 62%
    04:00 +20°C° 0 mm 2 mps 690 mmHg 66%
    05:00 +19°C° 0 mm 2 mps 690 mmHg 70%
    06:00 +20°C° 0 mm 2 mps 691 mmHg 68%
    07:00 +21°C° 0 mm 3 mps 691 mmHg 65%
    08:00 +22°C° 0 mm 3 mps 692 mmHg 63%
    09:00 +25°C° 0 mm 3 mps 692 mmHg 56%
    10:00 +27°C° 0 mm 3 mps 692 mmHg 49%
    11:00 +29°C° 0 mm 3 mps 693 mmHg 42%
    12:00 +30°C° 0 mm 3 mps 692 mmHg 38%
    13:00 +31°C° 0 mm 3 mps 691 mmHg 34%
    14:00 +33°C° 0 mm 3 mps 690 mmHg 30%
    15:00 +33°C° 0 mm 3 mps 690 mmHg 30%
    16:00 +31°C° 0 mm 2 mps 690 mmHg 29%
    17:00 +31°C° 0 mm 2 mps 690 mmHg 29%
    18:00 +30°C° 0 mm 2 mps 691 mmHg 31%
    19:00 +30°C° 0 mm 1 mps 692 mmHg 34%
    20:00 +29°C° 0 mm 1 mps 692 mmHg 36%
    21:00 +28°C° 0 mm 1 mps 692 mmHg 39%
    22:00 +27°C° 0 mm 2 mps 693 mmHg 42%
    23:00 +27°C° 0 mm 2 mps 693 mmHg 46%

    27 January, Sunday

    Time Temperature Precipitation Wind Pressure Humidity
    00:00 +26°C° 0 mm 2 mps 692 mmHg 51%
    01:00 +25°C° 0 mm 3 mps 692 mmHg 57%
    02:00 +24°C° 0 mm 3 mps 691 mmHg 63%
    03:00 +22°C° 0.1 mm 3 mps 691 mmHg 67%
    04:00 +23°C° 0.1 mm 2 mps 691 mmHg 71%
    05:00 +21°C° 0.1 mm 2 mps 691 mmHg 76%
    06:00 +21°C° 0 mm 2 mps 692 mmHg 74%
    07:00 +23°C° 0 mm 2 mps 692 mmHg 72%
    08:00 +22°C° 0 mm 3 mps 693 mmHg 70%
    09:00 +25°C° 0.1 mm 2 mps 693 mmHg 63%
    10:00 +27°C° 0.1 mm 2 mps 693 mmHg 55%
    11:00 +28°C° 0.1 mm 2 mps 693 mmHg 48%
    12:00 +28°C° 0 mm 1 mps 692 mmHg 46%
    13:00 +29°C° 0 mm 1 mps 692 mmHg 44%
    14:00 +27°C° 0 mm 0 mps 691 mmHg 42%
    15:00 +27°C° 0 mm 0 mps 691 mmHg 42%
    16:00 +29°C° 0 mm 1 mps 691 mmHg 42%
    17:00 +29°C° 0 mm 1 mps 691 mmHg 42%
    18:00 +28°C° 0 mm 1 mps 691 mmHg 46%
    19:00 +27°C° 0 mm 2 mps 691 mmHg 50%
    20:00 +26°C° 0 mm 3 mps 692 mmHg 54%
    21:00 +25°C° 0.1 mm 3 mps 692 mmHg 59%
    22:00 +24°C° 0.1 mm 3 mps 692 mmHg 64%
    23:00 +23°C° 0.1 mm 2 mps 692 mmHg 69%

    28 January, Monday

    Time Temperature Precipitation Wind Pressure Humidity
    00:00 +23°C° 0.1 mm 2 mps 692 mmHg 73%
    01:00 +21°C° 0.1 mm 2 mps 691 mmHg 77%
    02:00 +20°C° 0.1 mm 2 mps 691 mmHg 82%
    03:00 +20°C° 0 mm 2 mps 691 mmHg 84%
    04:00 +20°C° 0 mm 2 mps 691 mmHg 86%
    05:00 +20°C° 0 mm 1 mps 691 mmHg 88%
    06:00 +20°C° 0.1 mm 2 mps 692 mmHg 83%
    07:00 +21°C° 0.1 mm 2 mps 693 mmHg 79%
    08:00 +22°C° 0.1 mm 3 mps 694 mmHg 74%
    09:00 +24°C° 0.2 mm 3 mps 694 mmHg 66%
    10:00 +26°C° 0.2 mm 4 mps 694 mmHg 59%
    11:00 +27°C° 0.2 mm 4 mps 694 mmHg 51%
    12:00 +28°C° 0 mm 4 mps 693 mmHg 47%
    13:00 +28°C° 0 mm 4 mps 692 mmHg 43%
    14:00 +29°C° 0 mm 3 mps 692 mmHg 40%
    15:00 +28°C° 0 mm 3 mps 692 mmHg 41%
    16:00 +28°C° 0 mm 3 mps 691 mmHg 42%
    17:00 +27°C° 0 mm 3 mps 691 mmHg 43%
    18:00 +27°C° 0 mm 4 mps 692 mmHg 46%
    19:00 +26°C° 0 mm 5 mps 692 mmHg 48%
    20:00 +24°C° 0 mm 6 mps 693 mmHg 51%
    21:00 +23°C° 0 mm 5 mps 693 mmHg 54%
    22:00 +23°C° 0 mm 5 mps 693 mmHg 56%
    23:00 +22°C° 0 mm 4 mps 693 mmHg 58%
    Show more